GFSNW_sfc_rhum_000.txt.gz
RH
94 93 93 92 93 87 71 59 59 48 50 48 43 39 27 47 25 24 28 29 31 34 34 38 34 34 35 31 31 38 42 53 72 50 31 24 28 35 35 79 68 64 74 61
94 93 93 92 93 91 55 37 38 44 53 82 90 33 31 28 27 30 30 35 34 33 37 52 39 38 37 32 33 48 44 62 70 45 35 32 38 32 34 44 81 78 97 66
94 94 93 92 93 93 61 38 88 58 42 34 37 37 36 39 35 33 31 33 33 36 40 36 47 38 36 38 38 67 53 51 66 74 58 44 53 41 38 44 70 60 60 49
94 93 93 93 92 92 66 35 49 44 72 57 39 36 33 37 42 35 32 36 36 38 66 55 44 37 37 36 61 41 48 76 56 50 45 46 50 48 41 42 43 56 47 38
94 94 94 94 92 92 51 58 49 37 38 35 36 50 36 35 35 33 36 39 34 37 49 47 53 43 46 48 38 48 56 89 85 84 58 50 56 52 47 42 38 36 38 39
95 90 95 96 94 86 40 38 37 45 68 51 62 51 34 32 33 41 32 36 42 72 47 43 42 44 44 45 51 61 63 95 100 89 64 76 91 63 49 42 36 37 52 41
95 98 98 95 96 91 58 53 46 75 86 72 47 35 33 35 34 44 38 38 68 42 36 42 51 53 47 44 42 40 70 99 100 100 100 96 47 32 34 41 36 34 32 32
96 98 99 91 92 93 63 50 52 68 100 61 46 42 40 38 40 43 40 36 48 47 52 92 100 84 100 90 41 38 41 99 100 100 89 67 54 41 48 50 49 35 39 46
96 97 96 94 93 93 73 55 58 56 90 91 43 44 41 64 69 66 55 41 40 50 96 100 100 86 71 60 45 43 63 98 100 100 97 92 64 36 33 36 64 58 58 61
97 97 96 95 94 93 78 66 68 59 98 58 50 55 58 45 59 66 58 54 87 53 100 100 100 87 49 66 97 95 99 99 100 95 97 77 47 36 41 80 91 74 71 72
97 97 96 96 96 94 84 77 70 79 79 63 54 50 54 51 55 85 58 68 76 96 100 100 93 100 84 74 56 71 72 93 97 100 100 93 37 44 89 68 65 66 72 76
98 97 97 96 96 94 95 76 80 68 91 67 69 62 56 48 46 61 70 72 61 80 95 99 100 100 100 100 92 47 77 70 76 63 69 49 43 49 50 54 68 70 73 57
98 98 97 97 96 95 92 80 91 95 100 95 84 71 57 50 55 54 83 84 59 61 65 93 100 100 95 100 99 98 66 53 75 75 55 48 50 49 51 53 63 64 58 62
98 98 98 97 97 96 97 97 85 97 100 100 96 62 65 51 53 56 59 64 65 70 79 100 100 100 92 100 84 87 72 65 75 76 63 56 55 54 54 57 56 63 63 69
98 98 98 97 97 96 96 97 94 95 99 100 99 79 53 51 54 56 60 66 73 89 100 100 100 98 97 95 99 94 70 76 89 87 60 70 62 53 51 57 69 63 45 39
98 98 97 98 97 98 99 100 93 96 99 100 100 92 79 58 55 59 63 67 73 86 90 100 99 83 95 100 90 64 49 46 47 60 47 47 48 46 50 64 68 39 34 38
99 98 98 98 98 98 100 97 99 94 96 100 100 99 86 64 63 63 68 70 84 91 98 100 100 99 96 100 98 63 57 49 44 43 50 66 53 60 49 40 32 34 35 45
98 98 99 99 99 99 99 99 99 99 99 100 100 100 100 71 98 99 83 98 98 99 99 99 100 90 100 100 66 52 43 38 36 51 48 46 40 37 32 30 34 39 47 59
97 96 94 96 96 100 100 98 96 98 97 100 100 100 100 68 94 98 100 99 100 98 100 97 94 93 95 71 51 44 40 43 54 50 40 36 38 36 34 35 39 47 59 76
89 86 93 100 100 98 97 96 100 100 100 100 100 95 100 69 100 100 100 100 100 100 95 71 98 84 56 49 44 40 46 38 37 63 58 55 51 40 41 41 44 61 78 78
83 97 100 96 91 97 98 100 100 100 100 100 97 98 92 81 99 100 100 100 100 100 78 90 90 77 55 39 40 39 36 33 33 33 35 34 39 42 49 64 77 94 90 90
84 82 78 88 88 95 98 100 99 100 91 96 97 90 86 99 79 96 96 98 97 91 68 98 84 59 36 40 40 37 32 31 33 34 35 36 37 51 72 76 90 94 97 99
65 77 98 79 88 100 98 94 98 97 100 99 98 99 97 98 97 100 100 96 86 93 98 75 64 49 44 39 31 34 34 59 64 41 41 47 54 68 97 97 97 100 96 93
72 97 94 93 94 79 73 80 100 100 100 100 100 100 99 100 99 99 97 80 89 93 82 73 63 52 42 42 47 47 46 74 76 75 76 82 91 95 99 100 98 95 89 94
76 93 82 87 77 99 99 100 98 100 91 93 97 94 81 99 95 89 89 85 81 73 70 72 69 66 60 60 59 55 88 88 81 69 82 98 100 99 98 99 98 98 96 94
76 91 95 94 99 100 100 100 100 92 94 92 90 89 84 79 81 81 80 73 59 67 95 76 56 61 64 65 73 86 78 83 79 80 87 89 100 100 98 99 100 100 100 96
99 94 100 100 100 100 100 100 95 77 95 96 80 74 70 59 68 67 56 72 79 85 71 58 59 59 62 59 80 88 82 77 77 82 88 92 99 100 99 99 99 97 97 97

GFSNW_sfc_rhum_003.txt.gz
RH
93 93 93 93 94 88 80 87 79 66 73 82 91 72 38 45 33 34 38 41 45 48 48 50 49 53 49 42 42 59 57 65 88 58 41 38 37 48 46 88 91 87 93 76
94 92 92 92 94 93 94 87 77 72 71 90 98 46 42 44 40 39 41 47 43 45 53 65 54 53 50 40 52 60 56 78 91 68 53 53 54 46 51 65 84 81 95 76
95 92 92 92 93 94 95 84 90 90 84 73 54 50 48 49 46 43 40 42 46 50 53 52 58 51 52 50 51 63 60 67 77 90 73 62 70 57 53 63 90 77 74 59
95 94 93 93 94 92 94 80 74 66 91 80 58 56 46 49 57 47 42 50 49 51 71 62 62 54 53 53 70 57 59 82 73 67 61 57 59 57 56 60 59 73 60 52
95 95 95 98 95 94 80 83 87 80 68 55 56 63 54 47 41 44 50 51 51 52 68 63 77 66 69 68 59 69 67 86 87 88 69 67 72 67 59 57 58 55 51 49
95 95 98 98 96 94 87 72 70 84 94 76 82 79 51 48 48 54 44 49 58 70 66 63 65 67 64 64 69 77 78 89 98 85 80 84 88 66 62 54 46 52 72 61
94 98 98 95 96 96 95 91 86 94 91 92 75 52 45 47 53 59 50 49 68 64 54 61 74 71 72 80 69 62 81 96 97 97 99 97 61 43 41 53 50 53 68 73
95 97 98 94 94 96 96 87 87 96 100 97 76 60 58 54 59 63 58 53 60 61 80 98 95 87 77 67 63 82 74 97 98 99 98 79 67 57 66 60 57 73 71 62
95 95 96 95 94 95 94 93 86 93 97 92 64 65 64 86 86 81 70 62 62 63 100 99 93 95 78 74 57 71 88 95 97 98 98 92 67 52 53 52 75 79 76 90
96 96 96 95 94 94 96 94 88 92 100 90 68 80 81 69 80 83 79 76 78 77 100 99 89 90 74 84 94 81 97 98 98 99 96 84 61 51 64 89 80 80 93 87
97 97 97 95 95 94 95 95 90 94 98 93 72 70 76 75 83 92 76 79 86 100 99 100 97 94 94 91 70 76 82 91 98 98 99 95 55 61 77 73 82 73 84 85
98 98 98 97 96 94 98 95 92 92 96 92 84 80 78 73 73 81 81 81 80 96 99 99 99 100 100 99 95 62 85 79 88 84 83 66 55 57 57 55 61 81 86 76
99 98 98 97 96 95 94 97 97 98 100 99 94 86 72 64 67 66 93 96 74 84 84 99 100 100 100 100 98 96 75 69 84 84 63 56 58 52 52 56 76 71 79 87
99 99 98 98 97 96 96 98 97 97 100 100 96 72 73 63 66 68 74 73 77 84 96 100 100 100 94 100 88 90 83 81 82 81 66 60 59 62 63 68 85 90 81 74
99 99 98 98 97 97 97 99 98 97 98 100 99 86 69 61 66 69 71 80 86 99 100 100 100 100 98 100 100 99 78 76 89 87 62 69 67 67 69 77 84 84 78 61
98 98 98 98 98 97 99 100 98 97 99 100 100 91 86 74 69 70 75 78 90 96 99 100 99 87 94 100 94 71 57 61 62 74 62 61 70 66 59 65 66 48 49 62
98 98 98 98 98 99 99 97 96 95 98 100 100 100 93 83 77 83 88 85 94 97 99 100 100 99 96 100 98 65 62 62 59 56 60 77 83 78 54 44 42 44 44 60
98 98 98 99 99 99 99 99 98 99 99 100 100 100 99 89 100 99 98 100 99 98 99 100 100 97 100 100 81 67 60 57 56 61 68 65 55 46 40 40 43 50 60 71
96 98 98 96 97 100 100 97 95 99 99 100 100 100 100 85 99 99 100 98 100 98 100 100 98 100 98 92 79 60 58 67 67 54 52 47 51 49 50 48 50 63 74 82
93 91 94 100 100 96 96 94 99 99 100 99 100 100 100 89 100 100 100 100 100 99 94 92 100 94 66 57 54 54 60 55 58 79 81 66 59 57 56 59 66 82 86 88
93 99 100 100 97 99 97 99 99 99 99 99 99 99 100 95 99 100 100 100 100 99 93 98 97 97 70 55 58 57 63 51 54 54 50 46 48 50 68 80 83 93 94 91
90 91 93 97 99 100 99 99 100 98 94 99 98 99 95 100 96 100 100 99 99 98 90 97 91 83 51 56 60 58 56 55 51 47 50 53 53 69 82 86 90 97 98 98
86 96 100 95 99 99 100 99 100 100 100 100 99 100 100 99 99 100 97 95 89 97 96 91 92 70 66 59 60 55 57 67 68 62 65 68 74 79 98 97 97 94 98 97
95 99 98 97 98 97 97 99 99 100 100 100 100 100 100 98 95 91 97 93 94 99 100 93 93 76 68 66 67 68 69 80 79 80 83 89 92 97 99 99 96 99 98 92
93 96 94 99 97 99 100 100 100 100 98 100 99 99 98 100 98 97 95 94 84 93 90 94 92 75 69 69 71 69 86 89 90 86 90 90 92 95 95 94 97 97 96 98
94 96 97 99 96 100 97 100 100 99 98 98 97 95 94 92 96 98 95 94 89 88 93 94 86 73 75 72 76 78 86 88 88 90 92 93 97 98 96 96 99 99 98 97
98 97 98 99 97 97 98 100 98 95 98 96 95 88 85 90 95 96 90 90 90 93 94 93 76 73 74 78 78 84 90 88 88 89 91 94 97 100 98 98 94 99 97 97

GFSNW_sfc_rhum_009.txt.gz
RH
94 93 93 95 94 93 88 78 62 56 70 68 91 61 45 52 46 45 46 52 53 59 58 64 63 63 57 51 56 61 66 75 86 63 52 54 56 67 68 89 85 92 95 76
95 94 94 95 96 94 86 80 78 70 57 82 89 56 53 53 46 50 50 54 52 58 65 68 62 62 54 47 56 62 62 78 84 56 49 53 66 66 70 80 88 89 95 80
95 95 98 98 97 95 91 69 83 82 81 79 57 56 59 54 53 50 48 52 53 57 63 58 66 66 63 63 58 72 62 74 71 83 59 67 73 71 70 74 94 88 81 67
95 99 98 98 96 96 81 80 73 79 86 80 68 64 60 58 59 51 52 60 64 61 73 71 82 73 68 63 70 66 67 79 80 74 69 71 70 74 72 81 80 91 77 76
97 98 99 98 94 93 80 81 83 83 88 72 58 75 60 59 57 56 60 65 68 64 73 67 81 76 80 76 70 79 80 87 88 87 80 81 86 78 80 79 82 82 79 73
98 98 98 98 94 88 87 95 87 74 88 76 81 82 60 59 58 60 53 58 66 74 70 70 68 67 66 67 77 80 81 93 98 86 93 96 82 80 83 76 64 66 81 68
98 98 98 96 95 94 93 96 80 85 89 91 75 67 59 61 62 65 59 58 65 61 64 64 63 64 65 76 76 77 94 96 97 96 94 94 60 60 57 65 62 64 66 78
99 97 98 96 95 96 97 97 84 92 96 97 85 70 64 67 66 69 63 69 64 70 71 83 78 80 64 68 90 92 84 96 98 98 97 81 64 58 72 72 65 66 76 82
97 97 97 96 95 96 96 98 91 85 92 87 71 70 74 85 84 82 80 74 78 80 97 89 87 82 78 79 69 86 93 93 92 97 98 97 70 53 58 72 93 77 83 81
97 97 98 95 95 96 95 97 92 89 95 85 79 83 79 76 87 86 89 84 83 84 100 99 96 92 83 91 86 83 98 98 98 99 98 89 67 59 63 90 79 71 74 69
97 96 97 97 94 96 93 96 96 92 98 92 83 75 78 85 86 91 80 83 91 99 99 98 98 95 91 95 80 84 79 88 96 98 99 95 63 66 78 72 76 75 74 79
98 97 97 97 95 92 90 96 98 96 93 80 94 88 82 68 68 82 88 81 82 94 99 100 99 97 100 93 91 78 88 77 85 79 83 68 61 66 66 70 78 82 89 91
99 98 98 98 96 95 93 97 98 98 100 96 92 85 79 81 76 74 91 96 81 91 88 98 100 100 99 99 98 96 83 74 91 81 67 62 65 60 56 66 80 89 82 83
100 100 99 99 97 96 93 96 98 98 100 100 96 79 81 76 79 81 80 79 88 91 98 100 100 100 92 100 92 96 83 90 91 83 74 75 68 66 74 79 86 83 83 87
98 97 99 100 98 96 97 99 98 97 96 100 100 90 78 74 80 81 86 88 93 100 100 100 100 100 99 100 100 100 89 82 94 93 68 72 64 86 90 88 86 84 84 78
99 98 97 98 98 96 99 99 97 98 97 100 100 92 90 84 83 85 86 91 93 97 99 100 99 89 95 100 98 72 66 68 68 79 64 74 90 80 76 80 80 77 83 78
99 99 99 99 99 98 99 98 96 98 97 100 100 100 93 89 90 96 95 94 97 97 100 100 99 94 96 100 98 71 69 77 67 66 80 89 85 86 70 67 65 64 59 60
99 99 99 99 98 97 98 99 97 99 99 100 100 100 99 90 99 100 99 100 99 99 100 100 100 100 100 100 80 73 77 76 75 80 82 81 76 73 67 57 62 68 71 75
99 99 98 98 98 100 99 98 97 99 99 100 100 100 100 92 99 100 99 99 100 98 100 100 99 100 99 94 86 84 82 83 77 75 71 68 71 68 61 58 65 76 82 84
95 91 96 100 100 98 99 95 100 100 100 99 100 99 100 93 100 100 100 100 100 99 98 93 100 99 79 73 69 78 80 80 72 76 74 64 59 61 64 69 79 88 91 93
89 99 100 99 96 95 98 100 100 99 100 99 98 100 100 95 99 100 100 100 100 99 93 98 97 96 84 78 78 75 74 63 59 59 58 58 58 62 72 83 88 94 94 97
89 95 95 96 96 99 99 99 99 99 97 99 99 99 98 100 97 99 99 99 99 97 92 99 96 85 76 66 64 64 63 58 56 58 59 62 65 70 79 87 92 96 98 98
85 94 99 93 99 99 99 98 99 99 99 99 100 100 100 100 99 100 99 99 97 97 98 97 93 78 74 74 72 68 67 73 77 69 69 74 77 79 89 88 93 98 97 91
93 93 99 94 100 98 97 96 96 97 100 100 100 99 99 98 97 97 93 93 97 96 98 94 92 79 73 63 66 72 72 80 78 72 76 83 87 86 87 93 90 95 97 91
97 84 85 99 95 99 99 100 100 100 100 100 100 99 97 100 97 96 94 97 91 81 92 95 92 74 73 73 75 77 85 83 81 78 84 86 86 89 88 85 91 93 94 96
93 96 99 99 90 99 98 100 100 99 99 97 95 98 97 98 95 97 99 99 97 89 96 94 90 76 76 77 81 82 83 85 82 81 84 83 87 86 82 87 94 96 95 98
86 97 96 100 97 98 91 98 98 97 96 94 97 98 83 92 99 100 95 95 92 94 94 96 84 80 78 80 84 87 85 80 83 83 84 84 84 88 96 94 85 92 95 95

GFSNW_sfc_rhum_012.txt.gz
RH
94 94 95 96 95 94 83 68 58 63 74 64 88 63 50 55 51 48 51 54 56 61 64 67 66 65 60 52 60 64 70 76 83 59 55 63 66 70 69 87 80 93 96 81
95 95 98 99 98 94 81 78 74 69 61 80 88 60 57 55 50 54 52 56 57 60 68 69 64 63 64 60 60 68 66 78 80 50 51 55 69 72 74 82 88 85 94 75
96 98 98 99 96 95 80 69 84 81 85 79 58 59 60 58 54 53 61 59 55 60 65 66 74 73 65 66 66 75 66 76 68 78 59 63 78 76 75 79 93 83 83 68
98 98 99 97 94 96 76 79 80 80 85 82 72 67 59 60 60 53 57 61 62 61 74 74 82 75 68 63 70 74 69 80 81 75 70 73 74 79 78 88 83 90 71 80
98 99 99 99 94 93 80 82 82 87 90 76 61 75 62 65 61 57 64 64 69 67 70 64 77 78 80 74 75 81 82 86 91 90 88 90 95 85 84 86 87 88 84 88
98 99 99 98 95 86 88 96 86 76 91 76 80 80 61 58 58 61 57 62 65 72 70 71 74 68 69 79 79 78 82 94 97 89 93 91 77 66 82 79 75 75 78 61
98 99 99 98 95 93 91 96 79 82 90 91 80 70 62 62 64 63 62 60 66 61 67 63 62 60 59 74 81 80 98 96 97 97 89 93 58 62 57 69 65 63 68 70
97 98 98 95 94 96 97 97 80 88 98 96 85 69 68 69 68 73 68 78 77 67 69 86 80 80 66 77 95 94 86 97 98 98 89 82 61 56 71 76 69 67 77 81
98 98 97 96 95 95 97 99 91 82 92 86 68 72 74 84 84 83 85 84 81 75 94 88 86 81 75 76 73 88 93 93 94 98 97 98 70 58 61 78 89 77 76 64
98 98 98 96 95 97 96 99 93 84 92 84 79 82 80 77 86 85 91 85 85 86 99 98 94 90 84 89 84 83 98 98 99 99 98 90 68 62 65 87 77 73 69 73
97 97 98 96 95 94 94 99 98 90 96 91 86 77 81 86 86 90 83 86 92 98 99 99 98 96 91 92 79 82 75 84 95 98 99 95 65 70 75 66 77 73 82 87
98 97 98 98 96 95 90 97 98 96 92 80 96 91 86 72 68 81 90 82 86 95 98 99 99 99 99 91 91 82 88 78 83 79 85 69 58 65 64 71 79 85 93 92
99 98 98 98 96 98 92 98 99 97 100 93 91 86 82 84 81 74 89 96 82 90 89 98 99 94 96 99 98 91 84 79 90 81 73 75 71 64 69 82 89 88 91 93
100 99 99 99 97 95 92 96 98 98 100 100 96 84 83 80 85 84 80 81 93 94 98 99 100 100 89 99 90 96 90 88 92 91 76 78 74 82 93 95 90 90 90 83
99 98 98 99 98 95 97 98 98 96 95 100 100 91 84 81 84 86 87 88 94 99 100 100 100 100 99 100 99 100 87 88 96 86 68 79 85 93 92 88 89 87 84 77
99 99 99 98 98 96 98 99 97 98 97 100 100 93 91 86 83 88 92 94 96 99 99 100 99 89 94 100 100 76 73 70 69 77 72 84 91 87 83 86 84 76 76 82
99 99 98 99 98 98 98 98 95 98 96 100 100 100 94 89 91 97 96 96 97 98 100 100 100 98 96 100 94 70 66 72 76 74 80 92 90 86 74 70 67 67 67 69
99 99 99 99 98 98 99 99 98 98 99 100 100 100 98 91 99 100 99 100 99 99 99 100 100 99 100 100 89 84 75 72 74 84 85 89 73 66 58 55 61 67 74 80
99 99 98 98 98 100 100 98 96 98 97 100 100 100 100 94 99 99 99 99 100 98 100 100 99 100 99 90 78 78 77 85 87 85 76 58 56 55 57 56 59 74 82 88
98 97 98 100 100 98 97 95 100 100 100 99 100 99 100 96 100 100 100 100 100 97 98 96 100 99 76 75 78 91 84 74 70 72 67 68 71 67 66 62 68 82 89 92
97 100 100 100 98 96 98 100 100 100 100 100 98 99 100 97 99 100 100 100 99 100 94 97 99 97 83 75 69 64 64 62 61 61 61 59 64 71 77 77 77 87 91 95
92 97 97 98 97 99 99 100 99 100 98 99 99 99 99 100 98 99 99 99 99 97 95 99 97 90 79 72 73 71 73 70 65 64 66 68 73 77 84 85 84 86 92 94
86 95 99 94 99 99 99 99 99 99 99 99 100 100 100 99 99 99 99 100 97 98 98 97 95 85 69 66 67 66 68 73 76 67 66 70 76 80 89 86 86 89 90 88
90 95 99 96 99 99 96 95 96 97 100 100 100 99 99 99 98 99 97 96 98 98 100 95 94 76 66 65 73 75 71 80 82 76 78 82 85 85 84 88 88 91 90 86
94 84 95 99 96 98 100 100 100 100 100 100 99 99 97 99 97 94 95 95 91 90 91 95 91 76 74 74 70 71 83 84 86 82 87 87 87 89 88 84 89 92 91 91
93 94 98 99 98 99 98 100 100 99 100 97 96 97 98 98 96 97 96 97 99 90 96 94 92 76 77 76 78 80 82 86 84 83 87 87 90 90 86 86 88 89 92 92
88 99 96 99 97 95 96 98 99 97 95 95 95 95 87 93 98 100 98 96 91 93 94 93 84 76 75 77 81 85 86 84 88 88 88 88 88 92 95 94 88 89 90 93

GFSNW_sfc_rhum_015.txt.gz
RH
96 95 99 98 98 96 74 69 68 71 75 60 78 62 44 54 49 48 50 52 54 56 59 61 58 58 51 52 50 54 57 66 61 45 47 50 51 54 54 64 64 76 84 59
98 98 98 98 97 95 76 71 71 70 65 80 89 61 56 53 50 54 50 56 57 58 62 66 60 59 62 58 54 57 56 68 61 38 43 44 56 57 63 69 77 75 87 56
98 98 98 98 96 95 76 67 87 80 79 73 62 60 60 58 54 56 60 55 55 59 64 66 67 64 62 65 60 77 65 66 60 55 42 50 63 63 64 66 89 68 69 54
99 98 98 98 98 96 72 78 81 78 83 80 67 63 56 57 56 54 56 58 56 58 70 70 73 64 60 59 70 67 64 77 70 65 60 66 66 66 67 72 68 81 61 57
98 98 99 99 97 94 80 78 80 84 84 70 62 72 64 62 59 55 61 63 64 59 63 56 68 64 68 64 61 69 72 80 85 86 76 73 83 68 71 72 70 70 69 70
99 98 99 98 95 86 82 94 82 75 92 74 75 74 60 58 58 62 57 61 63 66 62 60 62 65 70 61 65 75 80 88 94 79 80 79 79 57 67 60 60 61 68 48
98 99 99 97 95 90 86 92 73 84 92 87 76 65 61 62 61 64 60 57 69 59 62 59 58 56 62 62 79 73 98 95 96 96 88 78 49 50 50 57 54 56 56 56
97 98 98 95 95 96 93 95 74 83 100 91 80 67 68 65 69 71 65 76 71 63 67 85 82 77 69 80 88 84 77 97 99 97 84 73 56 48 54 64 55 50 58 59
99 98 98 95 95 95 97 99 88 78 94 88 66 70 69 79 80 80 88 78 76 72 91 90 86 74 67 64 68 79 85 88 96 96 98 95 67 47 51 60 70 58 62 66
98 98 99 97 95 94 95 100 94 76 92 78 72 76 77 74 79 83 85 84 86 78 98 98 93 86 74 74 82 83 98 98 97 92 94 83 62 56 55 87 80 71 69 65
97 97 98 97 95 94 93 99 97 86 95 85 82 72 76 79 79 89 84 85 92 99 100 100 99 96 84 81 69 75 73 87 93 97 98 94 54 57 77 70 70 64 68 73
97 97 98 98 98 99 90 95 96 95 91 78 94 91 80 68 65 80 88 77 84 92 98 98 99 100 98 90 90 70 83 75 81 77 80 64 55 60 58 66 79 81 86 91
99 98 98 98 97 94 93 98 99 96 100 92 87 83 80 83 75 71 86 95 79 85 82 96 99 100 91 99 96 97 74 69 88 83 68 60 64 59 79 81 93 90 86 87
100 100 99 99 96 95 92 96 97 96 99 100 91 83 80 76 83 79 76 81 89 89 96 100 100 100 82 99 86 88 76 84 88 88 71 68 67 78 90 94 91 88 79 79
99 99 99 98 97 96 97 98 99 94 92 100 99 90 82 81 82 86 85 86 97 99 100 100 100 99 98 100 99 99 84 85 94 88 66 78 90 95 93 89 80 73 79 68
99 99 99 98 97 95 98 99 96 99 95 100 100 92 91 83 85 88 92 91 96 98 99 100 99 89 96 100 100 84 69 66 67 75 74 90 94 87 75 72 68 55 53 54
99 99 98 99 98 98 97 94 90 98 95 100 100 100 94 89 91 96 93 95 96 97 100 100 100 100 95 100 99 74 73 68 69 74 79 91 82 74 62 47 43 50 49 49
99 99 99 99 98 98 99 99 98 98 98 100 100 100 99 90 100 100 96 100 98 99 99 100 100 99 100 100 89 71 68 70 78 73 69 65 53 48 44 44 47 50 49 53
99 99 99 98 98 100 99 97 95 98 96 100 100 100 100 94 99 99 100 99 100 97 100 100 99 100 99 86 81 85 85 83 78 58 54 51 53 51 52 51 52 53 53 56
97 96 98 100 100 98 97 96 100 99 100 99 100 99 100 94 100 100 100 100 100 99 98 87 100 99 72 71 76 70 67 60 57 66 65 61 63 63 62 62 60 62 63 66
98 100 100 100 98 97 98 100 99 100 100 99 99 100 100 97 99 100 100 100 100 100 90 96 96 93 72 66 63 60 61 58 56 55 56 57 62 64 68 73 74 81 80 80
98 98 98 98 98 100 100 100 100 100 99 99 100 99 99 100 97 99 99 99 98 98 92 98 94 81 70 68 66 65 66 60 54 54 59 60 62 68 75 76 76 80 81 85
94 97 99 97 100 99 99 99 98 99 100 98 100 100 100 99 99 100 97 97 96 94 97 92 85 78 64 57 58 58 58 60 68 62 62 66 68 72 80 83 82 87 85 83
94 99 99 97 99 99 96 93 96 95 100 100 100 99 97 99 98 97 96 94 94 97 98 93 83 68 59 61 66 60 54 76 77 71 74 83 87 86 86 90 89 91 90 86
86 87 99 98 94 98 100 100 100 100 100 100 100 98 91 98 96 94 95 96 93 89 87 85 81 72 69 69 65 59 77 85 82 74 85 88 88 90 89 86 90 90 92 92
90 92 96 99 97 100 100 100 100 100 100 97 94 95 97 96 95 96 94 93 93 85 90 86 76 73 72 71 74 74 75 80 78 78 82 85 91 92 86 89 91 91 93 93
89 99 98 97 96 96 97 100 100 98 100 96 93 92 90 92 95 98 90 97 88 88 83 78 79 71 67 71 75 84 83 79 82 81 85 85 87 93 95 95 84 85 88 92

GFSNW_sfc_rhum_021.txt.gz
RH
97 96 96 96 95 91 80 42 35 49 51 30 32 36 26 42 26 27 27 26 26 28 29 31 34 34 34 32 29 31 32 34 40 22 25 28 27 30 30 47 37 43 55 40
98 96 96 96 96 92 36 30 37 44 50 58 63 35 33 27 28 27 27 33 29 30 32 42 35 36 39 32 33 38 34 41 39 27 31 31 32 28 30 34 49 48 74 44
96 97 98 97 96 92 51 31 60 38 37 32 30 34 32 36 33 33 29 32 29 33 35 32 41 40 41 41 38 70 52 34 35 40 29 23 29 25 23 30 55 52 45 32
98 97 97 98 96 93 52 32 44 40 52 43 32 31 29 32 34 31 28 32 30 33 43 37 40 36 42 40 62 42 39 47 35 32 25 23 25 28 27 29 31 50 42 32
97 98 98 96 95 92 39 34 41 38 40 34 34 47 32 29 32 29 32 32 30 28 42 28 37 30 30 32 38 39 38 54 58 51 30 26 34 27 27 27 31 30 31 33
98 98 97 94 96 89 36 41 42 37 63 42 43 39 32 29 33 39 26 29 30 46 33 35 37 37 34 33 37 44 50 61 58 69 47 58 84 43 30 28 29 34 46 34
99 99 96 95 95 90 40 44 36 66 67 49 37 33 30 32 32 39 32 29 48 44 35 35 35 37 38 38 42 42 72 64 84 95 89 91 39 26 26 31 29 27 27 28
99 98 95 95 96 93 44 42 40 61 100 42 40 36 34 39 39 39 42 47 42 38 39 60 81 67 91 71 42 44 45 70 92 99 65 46 37 35 36 42 43 29 34 36
97 97 96 94 95 94 50 57 55 48 86 74 33 40 40 51 54 56 59 51 45 47 69 79 98 68 39 44 49 47 54 68 82 90 98 90 45 31 33 35 56 41 44 47
96 96 96 96 98 94 57 60 73 40 79 45 38 47 48 36 43 50 56 57 66 50 94 99 98 60 39 44 82 91 94 95 98 90 96 63 34 35 37 66 69 52 52 68
96 96 97 99 98 94 65 63 68 56 64 53 47 42 46 45 40 72 57 60 67 81 100 100 90 100 61 56 37 62 74 93 98 90 97 92 34 37 75 60 59 62 66 77
96 96 97 99 97 93 90 48 58 57 52 60 61 58 56 52 44 38 58 48 56 56 77 94 98 100 99 88 69 30 53 51 59 57 59 36 36 42 47 52 59 64 71 70
97 96 97 96 94 93 84 53 60 50 93 60 55 56 56 48 54 48 57 64 41 51 54 82 98 100 78 100 76 73 41 32 62 65 41 38 45 49 62 57 63 67 69 50
98 98 99 97 95 95 86 55 61 54 77 100 73 52 56 53 52 52 52 50 59 56 60 100 100 100 51 94 61 62 48 47 57 63 45 49 59 71 76 68 69 59 42 39
99 99 99 98 93 93 69 63 65 62 62 93 83 60 56 51 53 55 53 54 59 74 100 100 98 76 81 81 84 76 45 50 70 82 59 81 83 81 79 68 49 42 37 32
99 99 97 99 96 94 53 58 60 62 59 95 100 63 62 55 54 58 59 56 68 62 79 95 71 54 67 100 100 51 39 38 39 55 56 65 82 76 55 48 39 31 33 30
100 99 100 100 98 72 60 58 72 85 59 100 100 88 69 60 60 62 62 75 81 73 80 98 90 77 72 100 99 51 48 47 47 51 64 81 65 56 42 34 32 33 25 21
99 99 100 98 98 95 82 76 91 83 66 87 100 98 95 65 94 98 66 93 90 87 87 98 98 86 97 100 69 56 49 51 50 55 58 53 43 37 33 29 25 24 25 27
99 99 99 95 97 99 88 94 88 72 74 94 100 100 100 69 88 92 93 85 100 90 100 99 97 100 99 75 65 58 55 53 52 42 38 35 36 32 26 24 27 30 31 30
99 98 100 100 100 98 97 96 99 98 96 94 100 80 99 69 98 100 99 100 100 100 97 81 100 98 78 56 54 52 54 51 47 50 48 41 36 29 29 29 30 34 37 45
99 100 100 100 98 94 96 100 100 100 100 100 96 98 98 81 98 100 100 100 100 100 93 96 96 82 65 58 58 50 46 41 37 34 29 26 28 30 35 41 47 52 52 57
99 98 97 97 96 100 100 100 100 100 99 100 100 99 94 100 90 99 100 100 99 99 68 98 88 59 53 53 48 46 42 37 30 27 27 28 29 35 47 53 53 54 69 92
95 96 100 99 100 100 100 100 100 100 100 99 100 100 100 100 97 100 100 100 100 74 95 80 58 53 45 44 45 42 36 37 41 28 27 31 38 49 65 74 72 96 75 69
98 100 100 100 100 100 100 100 100 100 100 100 100 100 100 100 100 100 100 98 81 97 92 90 58 51 46 45 39 38 38 82 56 44 46 54 82 83 98 100 100 100 92 84
96 99 100 100 100 100 100 100 100 100 98 99 100 99 93 100 100 100 99 100 96 78 77 70 57 56 50 47 48 38 47 95 78 46 61 100 100 95 83 85 88 85 100 100
78 96 100 100 100 100 100 100 100 97 100 99 96 100 100 100 100 99 100 96 80 79 80 67 55 54 52 53 48 46 43 48 46 47 50 65 94 100 76 80 92 100 100 100
99 98 100 100 100 100 100 100 100 94 100 100 97 100 100 94 96 93 73 90 84 77 70 53 51 52 49 43 50 80 65 58 54 53 54 60 72 92 95 94 67 67 80 100

GFSNW_sfc_rhum_027.txt.gz
RH
93 93 94 93 95 89 78 84 69 81 83 60 75 68 45 43 29 33 36 39 30 38 33 40 41 50 47 35 39 42 42 52 67 39 31 29 34 42 44 80 64 84 87 64
94 94 95 93 95 93 87 75 84 76 83 77 90 52 39 34 31 32 37 38 37 36 45 50 54 55 48 45 52 62 52 54 80 54 46 40 37 32 40 63 77 67 78 63
94 94 95 95 95 88 81 86 83 81 81 71 63 56 45 45 40 39 32 34 36 45 46 42 58 58 53 53 49 67 62 46 57 72 48 37 43 33 32 56 89 80 75 55
95 96 97 94 94 87 73 78 72 61 76 63 62 51 44 45 50 42 38 42 40 43 55 50 60 58 56 55 62 56 56 64 58 52 38 34 36 36 36 40 45 63 54 47
96 97 96 95 94 90 79 81 72 59 60 46 54 62 44 45 38 40 41 44 38 44 56 58 57 52 53 57 50 55 58 82 74 69 50 47 50 46 49 42 40 42 45 48
97 98 94 96 96 91 84 71 66 75 83 55 72 60 48 42 45 48 42 44 62 68 56 54 56 52 50 49 53 61 74 82 87 87 74 82 81 62 44 40 41 46 64 53
98 95 94 95 96 95 91 89 84 89 82 78 58 44 45 48 41 50 56 56 65 53 46 48 56 54 49 49 49 64 78 85 97 93 86 65 57 37 40 45 44 44 50 60
94 96 95 97 97 93 85 87 88 94 100 77 56 45 52 56 64 66 62 57 54 48 66 85 62 84 62 62 51 56 68 90 97 95 96 66 49 47 53 57 66 64 68 69
96 96 99 98 95 91 85 95 95 93 95 83 51 50 56 77 82 79 72 60 62 68 97 86 78 85 66 74 64 68 74 85 89 94 94 88 66 46 41 47 85 73 76 81
96 98 97 98 92 92 90 94 89 91 94 74 69 70 68 68 76 89 78 78 76 77 99 98 98 86 64 81 85 96 97 94 97 96 92 83 60 48 48 74 78 81 78 82
96 96 98 93 92 92 91 89 87 88 95 81 75 75 73 66 83 90 79 79 86 100 98 98 99 98 90 79 70 85 86 95 97 90 87 93 52 57 65 77 86 81 79 85
95 96 96 94 93 94 96 88 81 86 92 91 77 73 70 75 80 75 76 69 84 93 98 100 100 100 100 96 85 61 80 83 92 80 82 64 64 67 79 78 83 84 82 74
94 99 97 99 95 93 95 92 93 93 98 91 86 84 73 63 71 72 83 89 69 81 90 97 98 99 96 95 93 74 58 57 84 78 62 66 81 78 75 74 73 72 76 70
98 99 99 99 96 93 92 94 94 93 98 100 93 60 74 60 66 64 69 74 82 90 96 100 100 99 85 98 80 88 69 65 65 76 66 82 76 77 78 80 74 70 65 48
98 98 97 98 99 94 93 94 93 90 93 99 98 73 65 60 65 66 67 78 87 97 100 100 100 99 93 100 96 99 70 68 84 87 71 73 91 88 76 75 71 56 45 46
97 96 96 99 99 95 94 96 95 94 95 99 100 84 74 66 68 72 72 82 88 94 99 100 99 82 90 100 99 74 58 53 57 82 82 84 86 76 66 62 50 45 42 39
97 96 97 99 96 93 93 91 96 98 95 100 99 97 86 73 76 92 89 92 96 94 98 100 98 97 93 100 99 73 62 50 70 72 75 88 79 76 57 44 41 38 34 39
99 99 98 96 98 97 96 98 96 99 95 99 99 98 99 81 100 100 96 100 96 96 99 100 99 98 99 99 89 72 58 58 67 72 67 72 68 58 45 36 36 39 44 44
99 98 93 94 97 98 99 98 99 95 95 100 100 99 94 90 99 100 98 99 100 98 100 100 99 100 98 89 84 75 69 67 68 62 60 67 65 41 37 37 42 48 52 54
97 94 99 100 100 96 97 92 98 97 99 99 100 98 99 91 100 100 100 100 100 100 99 98 100 99 92 84 75 68 66 59 58 65 65 57 49 46 44 45 55 58 61 65
97 100 100 98 93 95 99 100 97 99 99 100 100 99 96 94 99 100 100 100 100 98 98 99 99 98 86 75 73 68 59 54 47 42 39 37 42 47 56 64 71 69 74 74
99 98 97 95 94 99 100 100 100 100 100 99 100 100 99 100 96 99 100 99 100 94 93 100 97 89 79 68 63 61 52 44 37 37 41 47 54 63 68 69 71 75 83 91
93 95 99 98 100 99 99 99 100 99 100 99 100 100 100 99 99 100 99 100 98 99 99 98 95 75 68 60 49 45 44 54 54 44 50 53 55 64 73 79 79 92 89 88
98 100 99 100 99 99 99 99 100 100 100 100 100 100 100 100 100 100 99 99 99 99 99 97 98 74 64 62 55 51 52 65 56 58 62 64 80 85 88 94 95 98 98 92
98 99 99 99 100 99 99 99 99 100 100 100 100 100 100 100 99 100 99 99 98 99 99 100 98 80 69 70 64 64 70 85 77 70 70 83 86 91 87 89 91 91 94 99
92 92 95 98 100 100 100 100 100 100 100 100 100 100 100 99 99 99 99 98 98 99 100 98 84 77 77 75 70 68 64 66 70 75 74 76 86 88 80 85 94 93 95 95
91 96 100 100 99 98 99 100 100 99 100 99 99 99 98 100 99 98 100 99 99 97 95 96 79 76 74 68 69 79 76 76 77 76 76 76 80 90 94 89 81 88 90 93

GFSNW_sfc_rhum_033.txt.gz
RH
94 94 92 92 96 93 82 77 62 77 55 50 87 75 60 52 37 36 40 43 44 42 44 59 59 57 56 57 54 44 54 57 68 47 40 42 42 51 52 70 57 88 85 65
94 94 92 93 96 90 86 80 95 86 48 61 89 58 49 46 39 39 43 47 47 50 59 62 65 64 62 49 55 56 51 58 71 55 49 44 45 48 63 66 76 68 78 62
94 94 92 93 96 93 87 83 90 83 90 69 53 59 57 53 48 44 42 43 45 49 60 64 68 68 62 56 50 70 59 63 56 62 53 52 44 43 59 59 83 75 71 55
95 93 93 94 97 94 83 88 75 69 79 78 77 59 55 52 51 46 42 45 47 50 64 70 74 70 65 54 62 60 56 64 68 58 54 48 44 41 53 56 58 64 57 60
95 95 96 95 95 93 81 90 78 78 62 56 65 76 60 51 51 47 50 47 60 56 56 55 69 63 63 52 57 70 70 78 71 61 70 66 54 43 48 51 52 60 72 83
95 96 95 96 94 78 80 86 88 69 86 69 68 74 55 52 51 64 59 56 63 66 66 67 68 66 64 58 60 79 75 79 69 54 80 61 58 48 53 51 51 54 83 68
97 96 98 98 93 89 87 94 83 84 89 65 54 59 54 56 54 62 67 59 62 58 57 48 46 51 66 70 78 68 81 91 87 72 74 52 41 50 51 52 72 70 74 72
98 98 98 98 98 94 91 96 86 82 98 82 65 66 76 74 78 79 78 74 65 62 55 65 50 72 60 70 80 82 74 89 97 78 79 50 40 58 67 57 59 73 74 75
98 98 98 95 95 95 92 98 92 81 93 84 70 74 69 79 85 80 80 74 75 68 88 76 66 59 45 76 81 78 78 77 76 98 66 57 46 58 51 52 76 76 76 81
98 99 97 97 96 95 88 96 93 81 93 89 81 75 72 78 83 87 82 78 79 69 95 91 84 79 62 81 82 92 99 97 91 100 86 74 53 54 53 70 60 86 80 83
99 99 98 97 96 92 84 94 95 80 98 92 88 85 78 82 82 84 78 76 83 93 83 86 96 95 88 85 76 84 91 97 99 95 95 78 56 59 65 66 86 85 87 86
98 98 98 99 96 93 84 90 96 93 91 90 85 84 84 86 66 84 83 69 80 84 94 98 98 99 99 89 83 74 76 69 83 78 79 61 61 68 69 80 85 87 87 83
98 98 98 99 95 92 88 97 98 89 96 91 87 88 78 69 80 76 78 94 80 88 88 97 99 82 97 96 96 86 70 68 85 75 59 64 64 82 86 84 85 82 79 76
97 99 99 99 94 92 91 98 99 90 96 100 92 76 76 68 77 79 74 85 92 94 95 100 100 88 85 94 80 90 71 76 75 84 73 89 84 84 84 81 81 78 76 69
98 99 99 92 94 91 89 97 99 95 66 99 98 83 75 73 80 83 82 82 89 96 99 100 96 97 97 99 99 97 76 74 85 83 68 75 72 85 84 84 82 76 54 49
99 98 97 96 94 92 78 82 94 98 92 93 94 93 87 80 88 90 93 94 95 96 100 100 97 93 91 98 99 86 77 75 65 71 71 79 87 90 82 79 76 51 46 45
98 99 98 92 90 95 84 74 97 98 91 96 99 98 89 90 92 96 96 94 97 96 99 100 99 99 97 100 99 72 68 68 70 80 88 94 90 89 78 62 50 49 45 46
97 98 99 98 95 96 94 99 98 98 88 92 95 96 93 90 100 100 98 99 98 98 99 100 99 98 100 100 92 85 80 83 88 90 83 84 80 58 46 40 44 51 56 57
96 92 92 91 97 99 98 96 97 96 86 98 99 89 89 94 99 99 100 98 100 98 100 100 99 100 99 94 89 87 85 87 85 86 80 70 58 52 59 64 71 64 59 60
90 91 93 100 100 90 92 89 93 96 98 99 100 99 99 95 100 100 100 100 100 99 97 96 100 99 92 87 86 87 86 79 87 86 70 66 66 66 73 81 60 58 61 66
96 100 100 98 88 94 97 99 95 96 97 99 100 99 98 97 99 99 98 99 99 94 94 98 97 98 94 80 76 71 66 64 65 66 75 83 92 97 83 69 72 70 70 68
94 96 94 93 94 99 98 99 100 99 97 100 100 100 99 100 97 99 100 96 99 98 95 100 99 91 67 67 82 86 83 84 87 87 92 91 87 73 69 64 63 66 79 91
92 92 97 96 99 99 100 99 99 99 100 99 100 100 100 98 99 100 99 99 99 99 100 99 99 81 89 87 89 92 84 90 89 81 67 61 60 65 67 75 69 90 84 83
98 100 99 99 99 99 99 99 100 100 100 100 100 100 100 100 99 100 99 99 99 99 98 96 99 99 96 66 65 57 66 82 72 69 66 71 82 83 88 92 94 95 92 87
98 96 98 99 100 99 100 100 100 100 100 100 100 99 99 99 99 99 99 98 98 98 98 99 100 100 82 86 90 66 71 83 77 70 75 85 88 90 85 86 88 87 94 94
90 93 99 100 99 100 100 100 100 100 100 100 99 99 99 99 99 98 98 98 98 97 99 99 92 98 96 97 90 71 74 76 77 78 77 79 90 90 79 86 90 92 94 93
84 99 100 99 99 99 100 100 100 99 100 98 98 97 95 98 98 98 99 98 99 99 94 99 95 90 89 82 74 83 76 70 71 73 74 77 82 94 94 89 77 84 88 92